Regional Weather Roundup
Issued by NWS Upton, NY

Current Version | Previous Version | Text Only | Print | Product List | Glossary On
Versions: 1 2 3 4 5 6 7 8 9 10 11 12 13 14 15 16 17 18 19 20 21 22 23 24 25 26 27
000 ASUS41 KOKX 262108 RWROKX REGIONAL WEATHER ROUNDUP NATIONAL WEATHER SERVICE NEW YORK NY 500 PM EDT WED APR 26 2017 NOTE: "FAIR" INDICATES FEW OR NO CLOUDS BELOW 12,000 FEET WITH NO SIGNIFICANT WEATHER AND/OR OBSTRUCTIONS TO VISIBILITY. NYZ071-072-176-178-NJZ106-104-262200- NEW YORK CITY METRO AREA CITY SKY/WX TMP DP RH WIND PRES REMARKS Central Park CLOUDY 59 57 93 VRB5 29.78F FOG Wall St Helipt CLOUDY 59 55 88 NE12 29.76F Bronx Bot Gard N/A 57 55 94 N2 29.77F LaGuardia APRT CLOUDY 59 56 89 NE7 29.76S FOG Kennedy INTL CLOUDY 60 57 89 NE9 29.77S Breezy Point N/A 57 N/A N/A NE7 N/A Newark/Liberty CLOUDY 60 57 89 E6 29.75F Teterboro CLOUDY 61 58 90 E5 29.74F FOG $$ NYZ177-179-078>081-262200- LONG ISLAND NEW YORK CITY SKY/WX TMP DP RH WIND PRES REMARKS Jones Beach N/A 54 N/A N/A S2 N/A Matinecock PT NOT AVBL Farmingdale CLOUDY 62 57 83 NE8 29.76S MacArthur/ISP CLOUDY 64 58 80 NE8 29.74F Shirley CLOUDY 61 58 90 VRB6 29.76S Mt Sinai Harb N/A N/A N/A N/A NW1 N/A Westhampton CLOUDY 59 55 87 N6 29.77S East Hampton CLOUDY 57 55 91 NE3 29.75S Montauk NOT AVBL $$ NYZ052-065-067-262200- HUDSON VALLEY CITY SKY/WX TMP DP RH WIND PRES REMARKS White Plains CLOUDY 59 56 89 CALM 29.76S FOG Larchmont Harb N/A 54 N/A N/A N5 N/A Croton O-T Hud N/A 61 N/A N/A E1 N/A Newburgh CLOUDY 61 59 94 E7 29.78F Montgomery CLOUDY 61 56 83 NE5 29.76F Poughkeepsie CLOUDY 61 56 83 N3 29.75F Albany PTSUNNY 71 56 58 E6 29.75F $$ NJZ001-105-106-008-010-013-015-019>022-104-262200- NEW JERSEY CITY SKY/WX TMP DP RH WIND PRES REMARKS Newark/Liberty CLOUDY 60 57 89 E6 29.75F Teterboro CLOUDY 61 58 90 E5 29.74F FOG Caldwell CLOUDY 62 57 83 E7 29.76F Somerville CLOUDY 65 57 75 NE3 29.75R Linden CLOUDY 61 56 84 CALM 29.76S Sussex CLOUDY 61 55 81 NE7 29.78R Andover N/A 60 54 80 VRB3 29.78R Trenton CLOUDY 63 57 81 NW5 29.76R Millville CLOUDY 65 60 84 NW8 29.77R Atlantic City CLOUDY 60 55 83 SE9 29.76R Wrightstown NOT AVBL Toms River CLOUDY 63 58 83 SE7 29.75F Belmar CLOUDY 61 56 83 N7 29.76F $$ PAZ047>061-062-071-262200- EASTERN PENNSYLVANIA CITY SKY/WX TMP DP RH WIND PRES REMARKS Philadelphia CLOUDY 64 56 75 N5 29.78R Allentown CLOUDY 68 56 65 SW3 29.76S Scranton SUNNY 73 56 54 N6 29.74S $$ CTZ002-004>006-009-010-012-RIZ004-006-007-MAZ004-011-015-262200- SOUTHERN NEW ENGLAND IN CT CITY SKY/WX TMP DP RH WIND PRES REMARKS Bradley INTL CLOUDY 61 55 81 N10 29.79S Hartford CLOUDY 61 56 83 N8 29.78S Danbury CLOUDY 61 57 87 E8 29.77F Wtrbury/Oxford CLOUDY 59 52 77 NE8 29.79S Bridgeport CLOUDY 60 54 80 E8 29.76S Meriden CLOUDY 63 56 78 NE5 29.77F New Haven CLOUDY 56 51 84 S8 29.76S Chester CLOUDY 61 59 94 VRB6 29.77S Groton CLOUDY 61 59 93 NE5 29.76S Wilimantic CLOUDY 64 58 80 N5 29.78S IN RI CITY SKY/WX TMP DP RH WIND PRES REMARKS Providence LGT RAIN 60 60 100 NE6 29.79S FOG Block Island CLOUDY 55 54 94 NE5 29.77S FOG Westerly CLOUDY 61 59 93 NE5 29.77S IN MA CITY SKY/WX TMP DP RH WIND PRES REMARKS Boston LGT RAIN 52 52 100 NE7 29.82S VSB 1/4 Worcester FOG 55 54 96 NE6 29.80F VSB 1/4 Westfield CLOUDY 59 55 87 N12 29.79F Provincetown CLOUDY 56 56 100 SE13 29.81F FOG Nantucket LGT RAIN 54 53 97 SE16 29.78R VSB 1/4 $$ ANZ330-335-338-340-345-350-353-355-262200- COASTAL MARINE OBSERVATIONS STATION/POSITION TIME SKY/WX TEMP WIND PRES VSBY WAVE AIR SEA DIR/SP/G HT/PER (UTC) (F) (DEG/KT/KT) (MB) (MI) (FT/S) NY HARB ENTRANCE 1950 52 49 60/ 2/ 4 1008.0 7/11 20 S FIRE ISLAND 2050 49 48 360/ 2/ 6 1007.1 8/10 GREAT SOUTH BAY 2030 60 57 20/ 8/ 10 N/A 23 SSW MONTAUK P 1950 47 46 1008.0 10/11 15 E BARNEGAT LI 2030 51 N/A 7/11 HUDSON CANYON 1950 53 51 60/ 2/ 2 1007.3 9/11 KINGS POINT 2036 58 49 CALM / 3 1007.6 EXECUTION ROCKS NOT AVBL CENTRAL LI SOUND 2030 48 110/ 4/ 6 N/A 1 EASTERN LI SOUND NOT AVBL ROBBINS REEF 2048 59 50/ 12/ 12 1007.7 $$ >>>>>>>>>>>>>>>>>>>>>>>>>>>> KEY <<<<<<<<<<<<<<<<<<<<<<<<<<< > < > SKY/WX - Sky Condition/Present Weather < > TMP - Temperature in Fahrenheit < > DP - Dew Point in Fahrenheit < > RH - Relative Humidity in Percent < > WIND - Direction (from) and Speed in MPH < > PRES - Mean Sea Level Pressure (inches of Hg) < > WCI - Wind Chill Index < > VSB - VISIBILITY IN MILES < > HX - HEAT INDEX < > TC - TEMPERATURE IN CELSIUS < > VRB - VARIABLE WIND DIRECTION < > < >>>>>>>>>>>>>>>>>>>>>>>>>>>> KEY <<<<<<<<<<<<<<<<<<<<<<<<<<<

USA.gov is the U.S. government's official web portal to all federal, state and local government web resources and services.